Regional Weather Roundup
Issued by NWS Sioux Falls, SD

Home | Current Version | Previous Version | Graphics & Text | Print | Product List | Glossary On
Versions: 1 2 3 4 5 6 7 8 9 10 11 12 13 14 15 16 17 18 19 20 21 22 23 24 25 26 27 28 29 30 31 32 33 34 35 36 37 38 39 40 41 42 43 44 45 46 47 48 49 50
000
ASUS43 KFSD 161802
RWRFSD

WEATHER ROUNDUP FOR SE SOUTH DAKOTA/SW MINNESOTA/NW IOWA
NATIONAL WEATHER SERVICE SIOUX FALLS SD
100 PM CDT WED AUG 16 2017

NOTE: "FAIR" INDICATES FEW OR NO CLOUDS BELOW 12,000 FEET WITH NO
SIGNIFICANT WEATHER AND OR OBSTRUCTIONS TO VISIBILITY.


SDZ038>040-050-052>070-161900-
SOUTHEAST SOUTH DAKOTA

CITY           SKY/WX    TMP DP  RH WIND       PRES   REMARKS
BROOKINGS      LGT RAIN  67  65  93 NE3       29.82F
CHAMBERLAIN    RAIN      67  67 100 NW12G21   29.86R
6HR MIN TEMP:  65; 6HR MAX TEMP:  69;

HURON          LGT RAIN  68  67  96 NW6       29.82F
6HR MIN TEMP:  65; 6HR MAX TEMP:  69; 6HR PCP:  0.13;

MADISON        HVY RAIN  64  64 100 NW7       29.83S
MITCHELL       CLOUDY    68  65  90 CALM      29.83F
6HR MIN TEMP:  65; 6HR MAX TEMP:  70; 6HR PCP:  0.20;

SIOUX FALLS    HVY RAIN  68  67  96 NE7       29.79S FOG
6HR MIN TEMP:  65; 6HR MAX TEMP:  69; 6HR PCP:  0.53;

WINNER         LGT RAIN  66  63  90 N17       29.89S
YANKTON        RAIN      66  64  93 NW16      29.80S FOG
$$

MNZ071-072-080-081-089-090-097-098-161900-
SOUTHWEST MINNESOTA

CITY           SKY/WX    TMP DP  RH WIND       PRES   REMARKS
FAIRMONT       CLOUDY    72  68  87 E7        29.82F
JACKSON        RAIN      66  66 100 CALM      29.83S VSB 3/4
LUVERNE        RAIN      66  63  88 E7        29.79S
MARSHALL       LGT RAIN  69  67  93 E7        29.82F
6HR MIN TEMP:  67; 6HR MAX TEMP:  70; 6HR PCP:  0.03;

MONTEVIDEO     LGT RAIN  70  68  94 SE5       29.84S
PIPESTONE      RAIN      68  66  94 E8        29.80F
REDWOOD FALLS  RAIN      68  66  93 E6        29.83F FOG
TRACY          HVY RAIN  70  69  97 E12       29.83F
WINDOM         RAIN      66  64  94 NE7       29.82F
WORTHINGTON    LGT RAIN  66  65  96 E12       29.81F
$$

IAZ001>003-012>014-020>022-031-032-NEZ013-014-SDZ071-161900-
NORTHWEST IOWA

CITY           SKY/WX    TMP DP  RH WIND       PRES   REMARKS
CHEROKEE       LGT RAIN  71  71 100 E7        29.74F
DENISON        PTSUNNY   73  72  94 S13G23    29.76F
ESTHERVILLE    CLOUDY    70  69  97 E9        29.80S FOG
LE MARS        CLOUDY    70  70 100 E5        29.74S
ORANGE CITY    DRIZZLE   70  70 100 E8        29.75S
SHELDON        PTSUNNY   68  68 100 E10       29.75F
SIOUX CITY     CLOUDY    74  73  97 SE6       29.73F
6HR MIN TEMP:  67; 6HR MAX TEMP:  74; 6HR PCP:  1.25;

SPENCER        HVY RAIN  69  68  96 N8        29.76F FOG
6HR MIN TEMP:  67; 6HR MAX TEMP:  70; 6HR PCP:  0.68;

STORM LAKE     LGT RAIN  72  72 100 E9G17     29.77F
$$

ABBREVIATIONS USED IN REMARKS
   TC - TEMPERATURE IN CELSIUS
  WCI - WIND CHILL INDEX
   HX - HEAT INDEX
  VSB - VISIBILITY





USA.gov is the U.S. government's official web portal to all federal, state and local government web resources and services.